{"data":{"norad_id":50993,"intl_designator":"2022-002K","name":"ION SCV-004","alt_names":[],"object_type":"PAYLOAD","status":"ACTIVE","operator":null,"country":"IT","launch_date":"2022-01-13","launch_site_code":"AFETR","launch_vehicle":null,"mission":null,"orbit_class":"UNKNOWN","rcs_meters":null,"size_class":null,"mass_kg":null,"dimensions":null,"purposes":[],"wikipedia_slug":null,"has_3d_model":false,"image_url":null,"decayed_at":null,"tle_current":{"epoch":"2026-05-25T03:40:06.069792Z","epoch_age_seconds":65854,"freshness":"FRESH","line1":"1 50993U 22002K   26145.15284803  .00004788  00000+0  16634-3 0  9990","line2":"2 50993  97.2849 203.2468 0009074  80.1676 280.0589 15.30183853241770","mean_motion":15.30183853,"eccentricity":0.0009074,"inclination_deg":97.2849,"raan_deg":203.2468,"arg_perigee_deg":80.1676,"mean_anomaly_deg":280.0589,"bstar":0.00016634,"rev_number":24177,"period_min":94.1063387368,"perigee_km":469.04450645899,"apogee_km":481.48205729054,"semimajor_km":6853.4002818748,"source":"CELESTRAK","updated_at":"2026-05-25T13:37:57.378513Z"}}}